| time (UTC) | temp F | wind direction | speed MPH | gust MPH | rain 1hr in | rain 24hr in | rain mn in | humidity % | barometer mb |
| 20260504081811 | 0 | 45 | 1.0 | 2.0 | 0.00 | 0.00 | 0.00 | 1001.3 | |
| 20260504081310 | 78 | 90 | 1.0 | 2.0 | 0.00 | 0.00 | 0.00 | 85 | 1001.3 |
| 20260504080810 | 78 | 45 | 1.0 | 2.0 | 0.00 | 0.00 | 0.00 | 85 | 1001.3 |
| 20260504080310 | 78 | 90 | 1.0 | 2.0 | 0.00 | 0.00 | 0.00 | 85 | 1001.4 |
| 20260504050546 | 82 | 45 | 0.0 | 2.0 | 0.00 | 0.00 | 0.00 | 80 | 1003.6 |
| 20260504045546 | 82 | 45 | 0.0 | 0.0 | 0.00 | 0.00 | 0.00 | 80 | 1003.7 |
| 20260504045044 | 82 | 0 | 0.0 | 0.0 | 0.00 | 0.00 | 0.00 | 80 | 1003.7 |
| 20260504044543 | 82 | 0 | 0.0 | 1.0 | 0.00 | 0.00 | 0.00 | 80 | 1003.7 |
| 20260504043824 | 82 | 45 | 0.0 | 1.0 | 0.00 | 0.00 | 0.00 | 80 | 1003.8 |
| 20260504043324 | 82 | 45 | 0.0 | 2.0 | 0.00 | 0.00 | 0.00 | 80 | 1003.9 |
| 20260504042824 | 82 | 270 | 1.0 | 4.0 | 0.00 | 0.00 | 0.00 | 81 | 1003.9 |
| 20260504042324 | 82 | 225 | 1.0 | 2.0 | 0.00 | 0.00 | 0.00 | 81 | 1003.9 |
| 20260504041824 | 82 | 0 | 0.0 | 0.0 | 0.00 | 0.00 | 0.00 | 81 | 1003.8 |
| 20260504041324 | 82 | 0 | 0.0 | 0.0 | 0.00 | 0.00 | 0.00 | 82 | 1003.8 |
| 20260504040824 | 81 | 0 | 0.0 | 2.0 | 0.00 | 0.00 | 0.00 | 82 | 1003.9 |
| 20260504040324 | 81 | 270 | 2.0 | 2.0 | 0.00 | 0.00 | 0.00 | 83 | 1004.0 |
| 20260504035824 | 81 | 180 | 1.0 | 2.0 | 0.00 | 0.00 | 0.00 | 83 | 1004.0 |
| 20260504035324 | 81 | 270 | 2.0 | 4.0 | 0.00 | 0.00 | 0.00 | 82 | 1004.1 |
| 20260504034827 | 82 | 225 | 2.0 | 3.0 | 0.00 | 0.00 | 0.00 | 82 | 1004.1 |
| 20260504034324 | 82 | 225 | 0.0 | 2.0 | 0.00 | 0.00 | 0.00 | 81 | 1004.0 |
| 20260504033823 | 82 | 0 | 0.0 | 1.0 | 0.00 | 0.00 | 0.00 | 80 | 1004.0 |
| 20260504033323 | 82 | 0 | 0.0 | 3.0 | 0.00 | 0.00 | 0.00 | 81 | 1003.9 |
| 20260504032822 | 82 | 225 | 2.0 | 4.0 | 0.00 | 0.00 | 0.00 | 80 | 1003.9 |
| 20260504032323 | 83 | 180 | 1.0 | 2.0 | 0.00 | 0.00 | 0.00 | 78 | 1003.8 |
| 20260504031822 | 83 | 0 | 0.0 | 0.0 | 0.00 | 0.00 | 0.00 | 76 | 1003.8 |
| 20260504031321 | 83 | 0 | 0.0 | 1.0 | 0.00 | 0.00 | 0.00 | 76 | 1003.7 |
| 20260504030822 | 83 | 0 | 1.0 | 2.0 | 0.00 | 0.00 | 0.00 | 76 | 1003.7 |
| 20260504030321 | 84 | 0 | 0.0 | 2.0 | 0.00 | 0.00 | 0.00 | 76 | 1003.7 |
| 20260504025821 | 84 | 0 | 1.0 | 2.0 | 0.00 | 0.00 | 0.00 | 76 | 1003.7 |
| 20260504025322 | 84 | 0 | 0.0 | 1.0 | 0.00 | 0.00 | 0.00 | 76 | 1003.6 |
| 20260504024821 | 84 | 0 | 0.0 | 0.0 | 0.00 | 0.00 | 0.00 | 76 | 1003.6 |
| 20260504024321 | 84 | 0 | 0.0 | 0.0 | 0.00 | 0.00 | 0.00 | 76 | 1003.6 |
| 20260504023822 | 84 | 0 | 0.0 | 0.0 | 0.00 | 0.00 | 0.00 | 76 | 1003.6 |
| 20260504023321 | 84 | 0 | 0.0 | 1.0 | 0.00 | 0.00 | 0.00 | 76 | 1003.6 |
| 20260504022821 | 83 | 0 | 0.0 | 1.0 | 0.00 | 0.00 | 0.00 | 77 | 1003.7 |
| 20260504022322 | 83 | 0 | 0.0 | 0.0 | 0.00 | 0.00 | 0.00 | 77 | 1003.6 |
| 20260504021821 | 83 | 0 | 0.0 | 2.0 | 0.00 | 0.00 | 0.00 | 77 | 1003.6 |
| 20260504021321 | 83 | 0 | 0.0 | 1.0 | 0.00 | 0.00 | 0.00 | 78 | 1003.6 |
| 20260504020821 | 82 | 45 | 0.0 | 2.0 | 0.00 | 0.00 | 0.00 | 79 | 1003.5 |
| 20260504020321 | 82 | 225 | 1.0 | 5.0 | 0.00 | 0.00 | 0.00 | 79 | 1003.6 |
| 20260504015821 | 82 | 180 | 3.0 | 5.0 | 0.00 | 0.00 | 0.00 | 79 | 1003.5 |
| 20260504015321 | 82 | 180 | 2.0 | 5.0 | 0.00 | 0.00 | 0.00 | 78 | 1003.4 |
| 20260504014821 | 83 | 180 | 4.0 | 5.0 | 0.00 | 0.00 | 0.00 | 77 | 1003.5 |
| 20260504014320 | 84 | 135 | 2.0 | 3.0 | 0.00 | 0.00 | 0.00 | 76 | 1003.6 |
| 20260504013821 | 84 | 180 | 2.0 | 4.0 | 0.00 | 0.00 | 0.00 | 75 | 1003.5 |
| 20260504013320 | 85 | 90 | 0.0 | 4.0 | 0.00 | 0.00 | 0.00 | 74 | 1003.5 |
| 20260504012821 | 85 | 0 | 1.0 | 5.0 | 0.00 | 0.00 | 0.00 | 74 | 1003.4 |
| 20260504012321 | 85 | 0 | 3.0 | 5.0 | 0.00 | 0.00 | 0.00 | 74 | 1003.3 |
| 20260504011820 | 85 | 0 | 3.0 | 5.0 | 0.00 | 0.00 | 0.00 | 74 | 1003.3 |
| 20260504011321 | 85 | 0 | 2.0 | 5.0 | 0.00 | 0.00 | 0.00 | 74 | 1003.2 |
| 20260504010821 | 84 | 45 | 2.0 | 3.0 | 0.00 | 0.00 | 0.00 | 74 | 1003.3 |
| 20260504010321 | 84 | 0 | 2.0 | 3.0 | 0.00 | 0.00 | 0.00 | 74 | 1003.4 |
| 20260504005821 | 84 | 45 | 0.0 | 4.0 | 0.00 | 0.00 | 0.00 | 75 | 1003.3 |
| 20260504005320 | 0 | 45 | 0.0 | 2.0 | 0.00 | 0.00 | 0.00 | 1003.2 | |
| 20260504004821 | 84 | 135 | 1.0 | 3.0 | 0.00 | 0.00 | 0.00 | 75 | 1003.1 |
| 20260504004320 | 84 | 90 | 1.0 | 3.0 | 0.00 | 0.00 | 0.00 | 77 | 1003.1 |
| 20260504003820 | 84 | 180 | 2.0 | 3.0 | 0.00 | 0.00 | 0.00 | 77 | 1003.1 |
| 20260504003321 | 84 | 225 | 1.0 | 2.0 | 0.00 | 0.00 | 0.00 | 76 | 1003.0 |
| 20260504002820 | 84 | 0 | 1.0 | 5.0 | 0.00 | 0.00 | 0.00 | 76 | 1003.0 |
| 20260504002320 | 84 | 225 | 2.0 | 4.0 | 0.00 | 0.00 | 0.00 | 75 | 1002.9 |
| 20260504001820 | 84 | 135 | 3.0 | 6.0 | 0.00 | 0.00 | 0.00 | 75 | 1002.9 |
| 20260504001320 | 84 | 225 | 2.0 | 3.0 | 0.00 | 0.00 | 0.00 | 74 | 1002.8 |
| 20260504000820 | 84 | 180 | 2.0 | 4.0 | 0.00 | 0.00 | 0.00 | 73 | 1002.6 |
| 20260504000320 | 85 | 180 | 2.0 | 8.0 | 0.00 | 0.00 | 0.00 | 72 | 1002.7 |
| 20260503235820 | 85 | 135 | 3.0 | 6.0 | 0.00 | 0.00 | 0.00 | 71 | 1002.7 |
| 20260503235320 | 85 | 180 | 4.0 | 8.0 | 0.00 | 0.00 | 0.00 | 70 | 1002.5 |
| 20260503234820 | 86 | 180 | 6.0 | 11.0 | 0.00 | 0.00 | 0.00 | 69 | 1002.5 |
| 20260503234318 | 86 | 90 | 6.0 | 16.0 | 0.00 | 0.00 | 0.00 | 68 | 1002.5 |
| 20260503233819 | 86 | 180 | 7.0 | 14.0 | 0.00 | 0.00 | 0.00 | 67 | 1002.4 |
| 20260503233319 | 87 | 180 | 5.0 | 11.0 | 0.00 | 0.00 | 0.00 | 67 | 1002.3 |
| 20260503232819 | 87 | 180 | 3.0 | 7.0 | 0.00 | 0.00 | 0.00 | 67 | 1002.1 |
| 20260503232319 | 87 | 225 | 5.0 | 7.0 | 0.00 | 0.00 | 0.00 | 67 | 1002.0 |
| 20260503231819 | 87 | 180 | 5.0 | 10.0 | 0.00 | 0.00 | 0.00 | 66 | 1001.9 |
| 20260503231319 | 87 | 180 | 4.0 | 8.0 | 0.00 | 0.00 | 0.00 | 66 | 1001.8 |
| 20260503230819 | 87 | 135 | 5.0 | 9.0 | 0.00 | 0.00 | 0.00 | 65 | 1001.7 |
| 20260503230319 | 87 | 135 | 5.0 | 9.0 | 0.00 | 0.00 | 0.00 | 66 | 1001.6 |
| 20260503225819 | 88 | 135 | 4.0 | 6.0 | 0.00 | 0.00 | 0.00 | 66 | 1001.5 |
| 20260503225318 | 88 | 180 | 4.0 | 6.0 | 0.00 | 0.00 | 0.00 | 65 | 1001.3 |
| 20260503224819 | 89 | 135 | 4.0 | 6.0 | 0.00 | 0.00 | 0.00 | 64 | 1001.1 |
| 20260503224318 | 89 | 135 | 4.0 | 6.0 | 0.00 | 0.00 | 0.00 | 63 | 1001.0 |
| 20260503223817 | 89 | 90 | 2.0 | 4.0 | 0.00 | 0.00 | 0.00 | 63 | 1001.0 |
| 20260503223318 | 90 | 90 | 2.0 | 4.0 | 0.00 | 0.00 | 0.00 | 62 | 1000.9 |
| 20260503222816 | 90 | 90 | 2.0 | 5.0 | 0.00 | 0.00 | 0.00 | 62 | 1000.8 |
| 20260503222316 | 89 | 90 | 2.0 | 5.0 | 0.00 | 0.00 | 0.00 | 63 | 1001.0 |
| 20260503221258 | 91 | 45 | 5.0 | 8.0 | 0.00 | 0.00 | 0.00 | 60 | 1000.9 |
| 20260503220758 | 91 | 90 | 3.0 | 5.0 | 0.00 | 0.00 | 0.00 | 59 | 1000.9 |
| 20260503220259 | 92 | 135 | 3.0 | 5.0 | 0.00 | 0.00 | 0.00 | 57 | 1000.9 |
| 20260503215758 | 92 | 90 | 2.0 | 5.0 | 0.00 | 0.00 | 0.00 | 54 | 1000.9 |
| 20260503215258 | 91 | 180 | 2.0 | 8.0 | 0.00 | 0.00 | 0.00 | 54 | 1000.8 |
| 20260503214758 | 92 | 180 | 3.0 | 5.0 | 0.00 | 0.00 | 0.00 | 54 | 1000.7 |
| 20260503214258 | 92 | 180 | 4.0 | 8.0 | 0.00 | 0.00 | 0.00 | 53 | 1000.7 |
| 20260503213758 | 92 | 225 | 4.0 | 8.0 | 0.00 | 0.00 | 0.00 | 53 | 1000.6 |
| 20260503213258 | 93 | 180 | 1.0 | 8.0 | 0.00 | 0.00 | 0.00 | 53 | 1000.6 |
| 20260503212758 | 93 | 180 | 5.0 | 11.0 | 0.00 | 0.00 | 0.00 | 53 | 1000.6 |
| 20260503212257 | 94 | 225 | 5.0 | 8.0 | 0.00 | 0.00 | 0.00 | 52 | 1000.5 |
| 20260503211758 | 95 | 225 | 5.0 | 11.0 | 0.00 | 0.00 | 0.00 | 50 | 1000.4 |
| 20260503211258 | 96 | 225 | 8.0 | 12.0 | 0.00 | 0.00 | 0.00 | 49 | 1000.3 |
| 20260503210757 | 97 | 180 | 5.0 | 7.0 | 0.00 | 0.00 | 0.00 | 48 | 1000.2 |
| 20260503210258 | 96 | 225 | 4.0 | 10.0 | 0.00 | 0.00 | 0.00 | 48 | 1000.3 |
| 20260503205758 | 96 | 225 | 5.0 | 8.0 | 0.00 | 0.00 | 0.00 | 49 | 1000.4 |
| 20260503205258 | 95 | 180 | 2.0 | 15.0 | 0.00 | 0.00 | 0.00 | 50 | 1000.4 |
| 20260503204758 | 95 | 180 | 11.0 | 15.0 | 0.00 | 0.00 | 0.00 | 49 | 1000.5 |
| 20260503204258 | 96 | 225 | 8.0 | 11.0 | 0.00 | 0.00 | 0.00 | 50 | 1000.5 |
| 20260503203758 | 96 | 180 | 6.0 | 11.0 | 0.00 | 0.00 | 0.00 | 49 | 1000.5 |
| 20260503203257 | 96 | 225 | 9.0 | 13.0 | 0.00 | 0.00 | 0.00 | 48 | 1000.5 |
| 20260503202757 | 97 | 225 | 5.0 | 11.0 | 0.00 | 0.00 | 0.00 | 49 | 1000.6 |
| 20260503202258 | 96 | 180 | 5.0 | 11.0 | 0.00 | 0.00 | 0.00 | 49 | 1000.7 |
| 20260503201757 | 97 | 225 | 11.0 | 16.0 | 0.00 | 0.00 | 0.00 | 48 | 1000.7 |
| 20260503201257 | 99 | 225 | 4.0 | 13.0 | 0.00 | 0.00 | 0.00 | 46 | 1000.8 |
| 20260503200757 | 100 | 270 | 7.0 | 12.0 | 0.00 | 0.00 | 0.00 | 45 | 1000.9 |
| 20260503200258 | 100 | 270 | 3.0 | 10.0 | 0.00 | 0.00 | 0.00 | 47 | 1000.9 |
| 20260503195757 | 100 | 270 | 1.0 | 9.0 | 0.00 | 0.00 | 0.00 | 48 | 1001.0 |
| 20260503195257 | 99 | 270 | 2.0 | 7.0 | 0.00 | 0.00 | 0.00 | 48 | 1001.2 |
| 20260503194757 | 98 | 225 | 7.0 | 14.0 | 0.00 | 0.00 | 0.00 | 48 | 1001.2 |
| 20260503194257 | 99 | 180 | 2.0 | 5.0 | 0.00 | 0.00 | 0.00 | 50 | 1001.2 |
| 20260503193757 | 98 | 0 | 2.0 | 9.0 | 0.00 | 0.00 | 0.00 | 50 | 1001.3 |
| 20260503193257 | 98 | 225 | 7.0 | 13.0 | 0.00 | 0.00 | 0.00 | 48 | 1001.3 |
| 20260503192757 | 99 | 180 | 5.0 | 10.0 | 0.00 | 0.00 | 0.00 | 48 | 1001.4 |
| 20260503192257 | 100 | 225 | 9.0 | 13.0 | 0.00 | 0.00 | 0.00 | 47 | 1001.4 |
| 20260503191757 | 99 | 180 | 5.0 | 8.0 | 0.00 | 0.00 | 0.00 | 49 | 1001.5 |
| 20260503191257 | 97 | 180 | 3.0 | 11.0 | 0.00 | 0.00 | 0.00 | 50 | 1001.6 |
| 20260503190756 | 97 | 225 | 7.0 | 11.0 | 0.00 | 0.00 | 0.00 | 50 | 1001.7 |
| 20260503190257 | 98 | 225 | 8.0 | 12.0 | 0.00 | 0.00 | 0.00 | 49 | 1001.7 |
| 20260503185757 | 97 | 270 | 0.0 | 12.0 | 0.00 | 0.00 | 0.00 | 52 | 1001.9 |
| 20260503185256 | 0 | 225 | 7.0 | 11.0 | 0.00 | 0.00 | 0.00 | 1001.9 | |
| 20260503184756 | 97 | 225 | 6.0 | 14.0 | 0.00 | 0.00 | 0.00 | 51 | 1002.0 |
| 20260503184257 | 97 | 225 | 8.0 | 14.0 | 0.00 | 0.00 | 0.00 | 52 | 1002.0 |
| 20260503183757 | 97 | 225 | 5.0 | 11.0 | 0.00 | 0.00 | 0.00 | 52 | 1002.1 |
| 20260503183256 | 97 | 270 | 4.0 | 10.0 | 0.00 | 0.00 | 0.00 | 54 | 1002.2 |
| 20260503182756 | 96 | 270 | 8.0 | 16.0 | 0.00 | 0.00 | 0.00 | 53 | 1002.3 |
| 20260503182257 | 97 | 225 | 10.0 | 17.0 | 0.00 | 0.00 | 0.00 | 51 | 1002.3 |
| 20260503181756 | 98 | 270 | 5.0 | 14.0 | 0.00 | 0.00 | 0.00 | 52 | 1002.5 |
| 20260503181256 | 98 | 225 | 8.0 | 14.0 | 0.00 | 0.00 | 0.00 | 52 | 1002.6 |
| 20260503180757 | 97 | 225 | 8.0 | 14.0 | 0.00 | 0.00 | 0.00 | 52 | 1002.8 |
| 20260503180256 | 97 | 270 | 9.0 | 14.0 | 0.00 | 0.00 | 0.00 | 52 | 1002.8 |
| 20260503175756 | 97 | 225 | 3.0 | 11.0 | 0.00 | 0.00 | 0.00 | 52 | 1003.0 |
| 20260503175256 | 98 | 225 | 5.0 | 12.0 | 0.00 | 0.00 | 0.00 | 51 | 1003.2 |
| 20260503174756 | 100 | 225 | 5.0 | 11.0 | 0.00 | 0.00 | 0.00 | 50 | 1003.3 |
| 20260503174255 | 99 | 225 | 3.0 | 9.0 | 0.00 | 0.00 | 0.00 | 53 | 1003.4 |
| 20260503173756 | 97 | 270 | 3.0 | 12.0 | 0.00 | 0.00 | 0.00 | 52 | 1003.6 |
| 20260503173256 | 98 | 225 | 5.0 | 14.0 | 0.00 | 0.00 | 0.00 | 52 | 1003.7 |
| 20260503172755 | 96 | 180 | 2.0 | 11.0 | 0.00 | 0.00 | 0.00 | 56 | 1003.8 |
| 20260503172256 | 95 | 225 | 5.0 | 14.0 | 0.00 | 0.00 | 0.00 | 55 | 1003.8 |
| 20260503171756 | 0 | 225 | 7.0 | 12.0 | 0.00 | 0.00 | 0.00 | 1003.9 | |
| 20260503171256 | 97 | 225 | 5.0 | 10.0 | 0.00 | 0.00 | 0.00 | 55 | 1004.0 |
| 20260503170755 | 96 | 270 | 5.0 | 13.0 | 0.00 | 0.00 | 0.00 | 57 | 1004.1 |
| 20260503170256 | 95 | 225 | 7.0 | 13.0 | 0.00 | 0.00 | 0.00 | 57 | 1004.2 |
| 20260503150754 | 89 | 135 | 5.0 | 11.0 | 0.00 | 0.00 | 0.00 | 64 | 1005.0 |
| 20260503150254 | 89 | 225 | 4.0 | 11.0 | 0.00 | 0.00 | 0.00 | 66 | 1004.8 |
| 20260503131346 | 82 | 225 | 2.0 | 5.0 | 0.00 | 0.00 | 0.00 | 77 | 1004.9 |
| 20260503130845 | 81 | 180 | 3.0 | 5.0 | 0.00 | 0.00 | 0.00 | 79 | 1004.9 |
| 20260503130346 | 80 | 225 | 2.0 | 4.0 | 0.00 | 0.00 | 0.00 | 82 | 1004.9 |
| 20260503110622 | 75 | 90 | 0.0 | 2.0 | 0.00 | 0.00 | 0.00 | 89 | 1003.3 |
| 20260503110121 | 75 | 90 | 0.0 | 0.0 | 0.00 | 0.00 | 0.00 | 89 | 1003.2 |